Showing default

KOMPASS, 27002

Orbit data source: Space-Track

KOMPASS, 27002 is a Commonwealth of Independent States-origin payload satellite in SSO that was launched on Mon, 10 Dec 2001 UTC via a ZENIT-2 launch vehicle from the Tyuratam Missile And Space Complex (TTMTR). Payload-class satellites include a variety of spacecraft equipped with specific instruments for various scientific and technological missions. These include communications satellites like Starlink; space stations such as the ISS; scientific satellites like the Hubble; Earth observation satellites from companies like Planet Labs, Umbra, and HawkEye 360; GPS; miniature CubeSats for education and research; and military/defense satellites.

Loading next visibility...
Identifier
27002, 2001-056B
Orbit
SSO
Country
Flag of CISCIS
Related business
Manufacturer
Makeev
Mission
Civil Science
Bus & Motor
SHTIL, Unknown motor
Mass
65 kg wet, 65 kg dry
Launch date (UTC)
2001-12-10 (24 years ago)
Launch vehicle
ZENIT-2
Launch site
Tyuratam Missile And Space Complex (TTMTR)
Object type
Payload
Rocket body
Debris
Shape & HBR
Trunc Poly + 4 Pan, 0.4 m
Radar Cross Section
0.451 m², Medium (>0.1 m² and < 1m²)

Expand to show TLE details & history
Last TLE update: 9 hours ago

TLE from 9 hours ago
0 KOMPASS
1 27002U 01056B   26150.47044480  .00000023  00000-0  78407-4 0  9993
2 27002  99.7954 324.9358 0019473 177.4227 207.4401 13.70639830223818
Epoch: 2026-05-30T11:17Z
TLE epoch observation values (Epoch: 2026-05-30T11:17:26.430Z)
Latitude
24.40177°
Longitude
-96.87921°
Altitude
1,012.888 km
Speed
7.341 km/s
True Right ascension
21h 21m 52s
True Declination
24° 16' 38"
Sunlit
Object was in daylight at epoch
Visualization orbit readout
Latitude
Unknown
Longitude
Unknown
Altitude
Unknown
Speed
Unknown
Apparent Right ascension
Unknown
Apparent Declination
Unknown
Sunlit
N/A
Visualization observer readout
Local Sidereal Time
05:27:15
Azimuth
Unknown
Elevation
Unknown
Doppler factor
Unknown
Orbital elements
Apogee altitude
1,008.91 km
Perigee altitude
980.197 km
Semi-major axis
7,372.691 km
Eccentricity
0.00195
Inclination
99.7954°
RAAN
324.9358°
Arg. of periapsis
177.4227°
True anomaly
207.33749°
Mean anomaly
207.4401°
Eccentric anomaly
207.38877°
Mean motion
3.4285 °/min
Orbital period
105 mins
BSTAR
0.000078407
Loading maneuver chart data...
Computing Atmospheric mass density...
Loading historical data...
Loading historical data...
Loading historical data...
Loading historical data...
Loading historical data...
Loading historical data...
Loading historical data...

Documentation

Showing up to 5 results
|